Location: Mat�lon
(46.2791°N, 7.1028°E)
Time: 16:16:38
(UTC+00:00)

Cosmos 1655 Rocket - Pass Details

Date: 18 September 2020
Orbit: 971 x 1005 km, 82.9° (Epoch: 29 October)

Event Time Altitude Azimuth Distance (km) Brightness Sun altitude
Rises 21:05:00 0° 350° (N) 3,686 7.8 -33.2°
Reaches altitude 10° 21:07:30 10° 349° (N) 2,737 7.0 -33.5°
Enters shadow 21:12:33 59° 334° (NNW) 1,125 4.4 -34.1°
